User: anonymous
Location: Columbia
(38.9520°N, 92.3340°W)
Time: 22:29:11
(UTC-05:00)
Language:

Cosmos 2100 Rocket - Orbit

View from above orbital plane
View from above orbital plane
View from above satellite
View from above satellite

Ground track
Ground track

The orbit data is extracted from the following two-line orbital elements,

1 20805U 90083B   14258.67971652  .00000160  00000-0  15019-3 0  8207
2 20805 082.9336 087.4049 0029596 323.7254 105.3589 13.75720722205146
Epoch (UTC): 15 September 2014 16:18:47
Eccentricity: 0.0029596
inclination: 82.9336°
perigee height: 957 km
apogee height: 1001 km
right ascension of ascending node: 87.4049°
argument of perigee: 323.7254°
revolutions per day: 13.75720722
mean anomaly at epoch: 105.3589°
orbit number at epoch: 20514

The dashed part of the orbit path shows where the satellite is in the earth's shadow,  

DLR